Volkel, Netherlands

1:04 AM CET on January 23, 2017 (GMT +0100)
Volkel Air Base

Weather History for EHVK - October, 2012

Change the Weather History Date:

Wednesday, October 17, 2012

  Actual Average Record
Temperature  
Mean Temperature 52 °F -  
Max Temperature 60 °F 51 °F 66 °F (2001)
Min Temperature 44 °F 38 °F 33 °F (2003)
Degree Days  
Heating Degree Days 13    
Growing Degree Days 2 (Base 50)    
Moisture  
Dew Point 49 °F    
Average Humidity 89    
Maximum Humidity 100    
Minimum Humidity 77    
Precipitation  
Precipitation 0.00 in - - ()
Sea Level Pressure  
Sea Level Pressure 29.70 in    
Wind  
Wind Speed 9 mph ()    
Max Wind Speed 15 mph    
Max Gust Speed -    
Visibility 5.8 miles    
Events Rain    
Averages and records for this station are not official NWS values.
T = Trace of Precipitation, MM = Missing Value Source: Averaged Metar Reports

Daily Weather History Graph

Daily Weather History Graph

Search for Another Location

Airport or City:

Trip Planner

Search our weather history database for the weather conditions in past years. The results will help you decide how hot, cold, wet, or windy it might be!

Date:

Astronomy

Oct. 17, 2012 Rise Set
Actual Time 8:05 AM CEST 6:38 PM CEST
Civil Twilight 7:31 AM CEST 7:12 PM CEST
Nautical Twilight 6:52 AM CEST 7:51 PM CEST
Astronomical Twilight 6:13 AM CEST 8:30 PM CEST
Moon 10:41 AM CEST (10/17) 7:38 PM CEST (10/17)
Length of Visible Light 11h 41m
Length of Day
10h 33m
Waxing Crescent, 5% of the Moon is Illuminated
Oct 17
Waxing Crescent
Oct 22
First Quarter
Oct 29
Full
Nov 7
Last Quarter
Nov 13
New

Hourly Weather History & Observations

Time (CEST) Temp. Windchill Dew Point Humidity Pressure Visibility Wind Dir Wind Speed Gust Speed Precip Events Conditions
12:25 AM 46.4 °F 42.9 °F 44.6 °F 93% 29.80 in 6.2 mi South 6.9 mph - N/A   Partly Cloudy
12:55 AM 46.4 °F 43.5 °F 44.6 °F 93% 29.80 in 6.2 mi South 5.8 mph - N/A   Unknown
1:25 AM 46.4 °F 42.9 °F 44.6 °F 93% 29.80 in 6.2 mi South 6.9 mph - N/A   Unknown
1:55 AM 46.4 °F 42.4 °F 44.6 °F 93% 29.80 in 6.2 mi SSW 8.1 mph - N/A   Unknown
2:25 AM 46.4 °F 43.5 °F 44.6 °F 93% 29.80 in 6.2 mi South 5.8 mph - N/A   Unknown
2:55 AM 46.4 °F 43.5 °F 44.6 °F 93% 29.80 in 6.2 mi South 5.8 mph - N/A   Unknown
3:25 AM 46.4 °F 43.5 °F 44.6 °F 93% 29.80 in 6.2 mi South 5.8 mph - N/A   Unknown
3:55 AM 46.4 °F 42.4 °F 44.6 °F 93% 29.80 in 6.2 mi South 8.1 mph - N/A   Unknown
4:25 AM 46.4 °F 42.4 °F 44.6 °F 93% 29.77 in 6.2 mi South 8.1 mph - N/A   Mostly Cloudy
4:55 AM 46.4 °F 42.4 °F 44.6 °F 93% 29.77 in 6.2 mi SSE 8.1 mph - N/A   Partly Cloudy
5:25 AM 46.4 °F 42.4 °F 44.6 °F 93% 29.74 in 6.2 mi SSE 8.1 mph - N/A   Overcast
5:55 AM 46.4 °F 42.4 °F 44.6 °F 93% 29.74 in 6.2 mi SSE 8.1 mph - N/A   Overcast
6:25 AM 46.4 °F 41.9 °F 42.8 °F 87% 29.74 in 6.2 mi SSE 9.2 mph - N/A   Overcast
6:55 AM 44.6 °F 40.2 °F 42.8 °F 93% 29.71 in 6.2 mi SSE 8.1 mph - N/A   Unknown
7:18 AM 46.4 °F 41.5 °F 42.8 °F 87% 29.71 in 6.2 mi SSE 10.4 mph - N/A   Overcast
7:25 AM 46.4 °F 41.5 °F 42.8 °F 87% 29.71 in 6.2 mi SSE 10.4 mph - N/A   Overcast
7:55 AM 46.4 °F 41.1 °F 42.8 °F 87% 29.71 in 6.2 mi SE 11.5 mph - N/A   Overcast
7:59 AM 46.4 °F 41.5 °F 42.8 °F 87% 29.71 in 6.2 mi SE 10.4 mph - N/A   Overcast
8:12 AM 48.2 °F - 44.6 °F 87% 29.71 in 6.2 mi SE 11.5 mph - N/A   Overcast
8:25 AM 48.2 °F - 44.6 °F 87% 29.71 in 6.2 mi SE 11.5 mph - N/A   Mostly Cloudy
8:31 AM 48.2 °F - 44.6 °F 87% 29.71 in 6.2 mi SE 10.4 mph - N/A Rain Light Rain
8:33 AM 48.2 °F - 44.6 °F 87% 29.68 in 3.7 mi SE 10.4 mph - N/A Rain Light Rain
8:38 AM 48.2 °F - 44.6 °F 87% 29.71 in 3.1 mi SE 10.4 mph - N/A Rain Rain Showers
8:39 AM 48.2 °F - 44.6 °F 87% 29.71 in - SE 10.4 mph - N/A Rain Rain Showers
8:40 AM 46.4 °F 41.5 °F 44.6 °F 93% 29.71 in - SE 10.4 mph - N/A Rain Light Rain Showers
8:47 AM 46.4 °F 41.5 °F 44.6 °F 93% 29.71 in 3.1 mi SE 10.4 mph - N/A Rain Rain Showers
8:48 AM 46.4 °F 40.7 °F 44.6 °F 93% 29.68 in - SE 12.7 mph - N/A Rain Rain
8:55 AM 46.4 °F 41.1 °F 44.6 °F 93% 29.68 in 3.1 mi SE 11.5 mph - N/A Rain Rain Showers
9:01 AM 46.4 °F 41.1 °F 44.6 °F 93% 29.68 in 5.0 mi SE 11.5 mph - N/A Rain Light Rain Showers
9:10 AM 46.4 °F 41.1 °F 46.4 °F 100% 29.68 in 5.0 mi SE 11.5 mph - N/A Rain Light Rain Showers
9:25 AM 48.2 °F - 46.4 °F 93% 29.68 in 6.2 mi SE 9.2 mph - N/A   Overcast
9:32 AM 48.2 °F - 46.4 °F 93% 29.68 in 6.2 mi SE 11.5 mph - N/A   Overcast
9:54 AM 48.2 °F - 46.4 °F 93% 29.68 in 2.5 mi SSE 10.4 mph - N/A   Drizzle
9:55 AM 48.2 °F - 46.4 °F 93% 29.68 in 3.1 mi SE 10.4 mph - N/A Rain Light Rain
10:02 AM 48.2 °F - 46.4 °F 93% 29.68 in 3.7 mi SSE 10.4 mph - N/A Rain Heavy Rain Showers
10:06 AM 48.2 °F - 46.4 °F 93% 29.68 in 3.1 mi SE 11.5 mph - N/A Rain Light Rain Showers
10:09 AM 48.2 °F - 46.4 °F 93% 29.68 in - SE 11.5 mph - N/A Rain Light Rain Showers
10:17 AM 48.2 °F - 46.4 °F 93% 29.68 in 3.1 mi SE 11.5 mph - N/A Rain Light Rain Showers
10:20 AM 48.2 °F - 46.4 °F 93% 29.68 in 3.7 mi SE 11.5 mph - N/A Rain Light Rain
10:25 AM 48.2 °F - 46.4 °F 93% 29.68 in 3.7 mi SE 11.5 mph - N/A Rain Light Rain
10:27 AM 48.2 °F - 46.4 °F 93% 29.68 in 5.0 mi SE 10.4 mph - N/A Rain Light Rain
10:32 AM 48.2 °F - 46.4 °F 93% 29.68 in 5.6 mi SE 10.4 mph - N/A Rain Light Rain
10:42 AM 48.2 °F - 48.2 °F 100% 29.68 in 6.2 mi SE 10.4 mph - N/A   Overcast
10:46 AM 48.2 °F - 48.2 °F 100% 29.68 in 6.2 mi SE 12.7 mph - N/A   Overcast
10:55 AM 50.0 °F - 48.2 °F 94% 29.65 in 6.2 mi SSE 12.7 mph - N/A   Mostly Cloudy
10:57 AM 50.0 °F - 48.2 °F 94% 29.65 in 6.2 mi SSE 11.5 mph - N/A   Mostly Cloudy
11:07 AM 50.0 °F - 48.2 °F 94% 29.65 in 6.2 mi SSE 11.5 mph - N/A   Overcast
11:14 AM 50.0 °F - 48.2 °F 94% 29.68 in 6.2 mi SE 11.5 mph - N/A   Overcast
11:25 AM 50.0 °F - 48.2 °F 94% 29.68 in 6.2 mi SSE 12.7 mph - N/A   Overcast
11:54 AM 51.8 °F - 50.0 °F 94% 29.65 in 6.2 mi SSE 12.7 mph - N/A   Mostly Cloudy
11:55 AM 51.8 °F - 50.0 °F 94% 29.65 in 6.2 mi SE 12.7 mph - N/A   Mostly Cloudy
12:25 PM 53.6 °F - 50.0 °F 88% 29.65 in 6.2 mi South 10.4 mph - N/A   Partly Cloudy
12:46 PM 55.4 °F - 50.0 °F 82% 29.65 in 6.2 mi South 12.7 mph - N/A   Scattered Clouds
12:55 PM 55.4 °F - 51.8 °F 88% 29.65 in 6.2 mi South 12.7 mph - N/A   Mostly Cloudy
1:25 PM 55.4 °F - 51.8 °F 88% 29.68 in 6.2 mi South 11.5 mph - N/A   Overcast
1:55 PM 55.4 °F - 51.8 °F 88% 29.68 in 6.2 mi South 11.5 mph - N/A   Overcast
2:01 PM 57.2 °F - 51.8 °F 82% 29.68 in 6.2 mi South 11.5 mph - N/A   Mostly Cloudy
2:05 PM 57.2 °F - 51.8 °F 82% 29.68 in 6.2 mi South 11.5 mph - N/A   Mostly Cloudy
2:25 PM 57.2 °F - 53.6 °F 88% 29.68 in 6.2 mi South 11.5 mph - N/A   Mostly Cloudy
2:29 PM 59.0 °F - 53.6 °F 82% 29.68 in 6.2 mi South 10.4 mph - N/A   Mostly Cloudy
2:55 PM 59.0 °F - 53.6 °F 82% 29.68 in 6.2 mi South 11.5 mph - N/A   Overcast
3:25 PM 59.0 °F - 53.6 °F 82% 29.68 in 6.2 mi South 15.0 mph - N/A   Scattered Clouds
3:29 PM 59.0 °F - 51.8 °F 77% 29.68 in 6.2 mi SSW 15.0 mph - N/A   Mostly Cloudy
3:50 PM 60.8 °F - 53.6 °F 77% 29.68 in 6.2 mi South 13.8 mph - N/A   Mostly Cloudy
3:55 PM 60.8 °F - 53.6 °F 77% 29.68 in 6.2 mi South 13.8 mph - N/A   Mostly Cloudy
4:08 PM 60.8 °F - 53.6 °F 77% 29.68 in 6.2 mi SSW 13.8 mph - N/A   Mostly Cloudy
4:14 PM 60.8 °F - 53.6 °F 77% 29.68 in 6.2 mi South 11.5 mph - N/A   Overcast
4:25 PM 60.8 °F - 53.6 °F 77% 29.68 in 6.2 mi South 12.7 mph - N/A   Overcast
4:39 PM 59.0 °F - 53.6 °F 82% 29.68 in 6.2 mi South 11.5 mph - N/A   Mostly Cloudy
4:55 PM 59.0 °F - 53.6 °F 82% 29.68 in 6.2 mi South 10.4 mph - N/A   Overcast
4:58 PM 59.0 °F - 53.6 °F 82% 29.68 in 6.2 mi South 10.4 mph - N/A   Overcast
5:25 PM 59.0 °F - 53.6 °F 82% 29.68 in 6.2 mi South 8.1 mph - N/A   Overcast
5:38 PM 59.0 °F - 53.6 °F 82% 29.68 in 6.2 mi South 8.1 mph - N/A   Overcast
5:39 PM 59.0 °F - 53.6 °F 82% 29.68 in 6.2 mi South 8.1 mph - N/A   Overcast
5:55 PM 59.0 °F - 53.6 °F 82% 29.68 in 6.2 mi South 8.1 mph - N/A   Overcast
6:02 PM 59.0 °F - 53.6 °F 82% 29.68 in 6.2 mi South 8.1 mph - N/A   Overcast
6:25 PM 59.0 °F - 53.6 °F 82% 29.68 in 6.2 mi South 9.2 mph - N/A   Drizzle
6:55 PM 57.2 °F - 53.6 °F 88% 29.71 in 6.2 mi South 10.4 mph - N/A Rain Light Rain
6:59 PM 57.2 °F - 53.6 °F 88% 29.71 in 6.2 mi South 10.4 mph - N/A Rain Light Rain
7:03 PM 57.2 °F - 53.6 °F 88% 29.71 in 6.2 mi South 10.4 mph - N/A Rain Light Rain
7:07 PM 57.2 °F - 55.4 °F 94% 29.71 in 6.2 mi South 9.2 mph - N/A   Light Drizzle
7:08 PM 57.2 °F - 55.4 °F 94% 29.71 in 6.2 mi South 9.2 mph - N/A   Light Drizzle
7:25 PM 57.2 °F - 55.4 °F 94% 29.71 in 6.2 mi South 10.4 mph - N/A   Overcast
7:55 PM 57.2 °F - 55.4 °F 94% 29.71 in 6.2 mi South 9.2 mph - N/A   Overcast
8:25 PM 57.2 °F - 53.6 °F 88% 29.71 in 6.2 mi South 8.1 mph - N/A Rain Light Rain
8:55 PM 57.2 °F - 53.6 °F 88% 29.71 in 6.2 mi South 6.9 mph - N/A   Light Drizzle
9:17 PM 57.2 °F - 53.6 °F 88% 29.71 in 3.7 mi South 5.8 mph - N/A   Overcast
9:21 PM 57.2 °F - 53.6 °F 88% 29.71 in 6.2 mi South 4.6 mph - N/A Rain Light Rain
9:25 PM 57.2 °F - 53.6 °F 88% 29.71 in 6.2 mi SSE 4.6 mph - N/A   Drizzle
9:36 PM 57.2 °F - 53.6 °F 88% 29.71 in 6.2 mi SSE 4.6 mph - N/A   Overcast
9:55 PM 57.2 °F - 53.6 °F 88% 29.71 in 6.2 mi SE 4.6 mph - N/A   Overcast
10:25 PM 57.2 °F - 53.6 °F 88% 29.68 in 6.2 mi SE 4.6 mph - N/A   Mostly Cloudy
10:55 PM 57.2 °F - 53.6 °F 88% 29.68 in 6.2 mi SE 8.1 mph - N/A   Overcast
11:25 PM 57.2 °F - 53.6 °F 88% 29.68 in 6.2 mi SSE 6.9 mph - N/A   Overcast
11:55 PM 57.2 °F - 53.6 °F 88% 29.68 in 6.2 mi SSE 10.4 mph - N/A   Mostly Cloudy